Powrót do katalogu

STARLINK-37092

AktywnyŁącznośćVLEO
NORAD 68240·PAYLOAD·🇺🇸 United States

Wystrzelony Mar 17, 2026 z Vandenberg Space Force Base

Loading…

Następne Przeloty (najbliższe 24 godziny)

TLE

ŚwieżeSource: CelesTrak SupGP

Epoka: Sep 14, 2026, 22:52 UTC

1 68240C 26054J   26257.95326389 -.00055734  00000+0 -16469-2 0  2574
2 68240  53.1565 127.8553 0001251  89.2375  89.2510 15.34413828    16

Śledź STARLINK-37092 w czasie rzeczywistym z AllMySat

Download on the App Store